Regional Weather Roundup
Issued by NWS

Home | Current Version | Previous Version | Text Only | Print | Product List | Glossary Off
Versions: 1 2 3 4 5 6 7 8 9 10 11 12 13 14 15 16 17 18 19 20 21 22 23 24 25 26 27 28 29 30 31 32 33 34 35 36 37 38 39 40 41 42 43 44 45 46 47 48 49 50

000
ASUS43 KFSD 291102
RWRSD

WEATHER ROUNDUP FOR SOUTH DAKOTA
NATIONAL WEATHER SERVICE SIOUX FALLS SD
600 AM CDT SAT JUL 29 2017

NOTE: "FAIR" INDICATES FEW OR NO CLOUDS BELOW 12,000 FEET WITH NO
SIGNIFICANT WEATHER AND/OR OBSTRUCTIONS TO VISIBILITY.


SDZ001>005-009-010-012>017-291200-
NORTHWEST AND NORTH CENTRAL SOUTH DAKOTA

CITY           SKY/WX    TMP DP  RH WIND       PRES   REMARKS
BUFFALO          N/A     64  60  87 CALM      30.00R
FAITH            N/A     63  62  97 SE10      30.03R
MOBRIDGE       CLEAR     69  63  81 S8        30.02R
$$

SDZ012>016-024>037-041>051-057-063-072>074-291200-
SOUTHWEST AND SOUTH CENTRAL SOUTH DAKOTA

CITY           SKY/WX    TMP DP  RH WIND       PRES   REMARKS
RAPID CTY ARPT CLEAR     59  58  96 W3        30.04F
PIERRE         CLEAR     67  62  84 SE10      30.03R
CUSTER         CLEAR     57  52  83 NW5       30.21S
ELLSWORTH AFB  CLEAR     64  63  95 W6        30.04F
PHILIP         PTCLDY    62  62 100 E5        30.02S
PINE RIDGE     PTCLDY    66  65  96 SW5       30.08S
SPEARFISH      FAIR      63  54  72 SW5       30.10S
WINNER         FAIR      67  63  87 SE7       30.06R
$$

SDZ004>011-016>023-039-040-291200-
NORTHEAST SOUTH DAKOTA

CITY           SKY/WX    TMP DP  RH WIND       PRES   REMARKS
ABERDEEN       CLEAR     59  58  96 S5        30.08R
WATERTOWN      CLEAR     63  59  87 SE3       30.12R
BROOKINGS      CLEAR     62  60  93 E3        30.13R
SISSETON         N/A     59  58  96 S3        30.09S
$$

SDZ017-020-022-023-036>040-048>070-291200-
SOUTHEAST SOUTH DAKOTA

CITY           SKY/WX    TMP DP  RH WIND       PRES   REMARKS
SIOUX FALLS    CLEAR     63  61  93 E5        30.11R
HURON          CLEAR     63  61  93 SE8       30.08R
CHAMBERLAIN    CLEAR     65  65 100 S7        30.07S
MITCHELL       CLEAR     62  61  96 S3        30.09R
YANKTON        FOG       63  62  97 CALM      30.09S VSB 1
$$

ABBREVIATIONS USED IN REMARKS
   TC - TEMPERATURE IN CELSIUS
  WCI - WIND CHILL INDEX
   HX - HEAT INDEX
  VSB - VISIBILITY




USA.gov is the U.S. government's official web portal to all federal, state and local government web resources and services.